KC5EZZ-2 Weather Reports


time (UTC)temp
F
wind
direction
speed
knots
gust
knots
rain 1hr
in
rain 24hr
in
rain mn
in
humidity
%
barometer
mb
20260510174244 92 145 6.1 11.3 0.00 0.00 0.00
20260510173745 92 132 7.0 3.5 0.00 0.00 0.00
20260510173245 89 156 7.8 9.6 0.00 0.00 0.00
20260510173122 89 141 10.4 10.4 0.00 0.00 0.00
20260510172742 89 141 10.4 10.4 0.00 0.00 0.00
20260510172243 88 110 9.6 8.7 0.00 0.00 0.00
20260510171743 89 159 9.6 8.7 0.00 0.00 0.00
20260510170741 87 113 8.7 7.0 0.00 0.00 0.00
20260510170241 87 108 7.0 6.1 0.00 0.00 0.00
20260510165739 85 100 7.0 7.8 0.00 0.00 0.00
20260510165239 85 79 9.6 11.3 0.00 0.00 0.00
20260510164739 85 97 8.7 7.8 0.00 0.00 0.00
20260510164237 85 89 10.4 12.2 0.00 0.00 0.00
20260510163737 85 98 11.3 8.7 0.00 0.00 0.00
20260510163237 87 121 9.6 11.3 0.00 0.00 0.00
20260510162735 85 115 8.7 10.4 0.00 0.00 0.00
20260510162235 84 114 9.6 7.8 0.00 0.00 0.00
20260510161735 85 97 9.6 8.7 0.00 0.00 0.00
20260510161233 83 110 8.7 5.2 0.00 0.00 0.00
20260510160733 84 114 8.7 7.0 0.00 0.00 0.00
20260510160233 84 104 10.4 8.7 0.00 0.00 0.00
20260510155731 83 113 7.0 7.8 0.00 0.00 0.00
20260510155231 82 75 7.0 8.7 0.00 0.00 0.00
20260510154731 83 70 7.8 6.1 0.00 0.00 0.00
20260510154228 84 125 7.0 6.1 0.00 0.00 0.00
20260510153728 83 122 7.0 7.0 0.00 0.00 0.00
20260510153228 81 128 6.1 7.8 0.00 0.00 0.00
20260510152726 81 42 6.1 8.7 0.00 0.00 0.00
20260510151727 81 118 7.0 5.2 0.00 0.00 0.00
20260510151224 80 115 8.7 6.1 0.00 0.00 0.00
20260510150226 79 94 8.7 8.7 0.00 0.00 0.00
20260510145722 81 108 9.6 8.7 0.00 0.00 0.00
20260510145223 81 111 7.0 7.0 0.00 0.00 0.00
20260510144723 81 138 6.1 10.4 0.00 0.00 0.00
20260510144220 80 149 9.6 12.2 0.00 0.00 0.00
20260510143721 79 165 9.6 7.0 0.00 0.00 0.00
20260510143221 79 166 9.6 14.8 0.00 0.00 0.00
20260510142719 79 134 9.6 13.0 0.00 0.00 0.00
20260510142219 80 163 13.9 13.9 0.00 0.00 0.00
20260510141719 79 165 12.2 10.4 0.00 0.00 0.00
20260510141217 79 162 12.2 18.2 0.00 0.00 0.00
20260510140717 79 183 12.2 12.2 0.00 0.00 0.00
20260510140217 79 172 14.8 16.5 0.00 0.00 0.00
20260510135715 78 201 5.2 11.3 0.00 0.00 0.00
20260510135215 78 187 10.4 14.8 0.00 0.00 0.00
20260510134716 77 113 12.2 13.0 0.00 0.00 0.00
20260510134213 78 173 10.4 13.9 0.00 0.00 0.00
20260510133713 77 180 8.7 8.7 0.00 0.00 0.00
20260510133247 76 187 12.2 11.3 0.00 0.00 0.00
20260510133214 76 187 12.2 11.3 0.00 0.00 0.00
20260510132711 77 184 11.3 13.9 0.00 0.00 0.00
20260510132212 77 184 12.2 14.8 0.00 0.00 0.00
20260510131712 77 211 13.0 13.0 0.00 0.00 0.00
20260510131210 78 160 11.3 13.0 0.00 0.00 0.00
20260510130710 78 142 12.2 14.8 0.00 0.00 0.00
20260510130210 77 188 13.0 15.6 0.00 0.00 0.00
20260510125708 76 195 11.3 9.6 0.00 0.00 0.00
20260510125208 76 198 13.0 10.4 0.00 0.00 0.00
20260510124708 76 180 10.4 17.4 0.00 0.00 0.00
20260510124206 75 170 11.3 12.2 0.00 0.00 0.00
20260510123706 75 172 8.7 7.8 0.00 0.00 0.00
20260510123207 74 191 10.4 8.7 0.00 0.00 0.00
20260510122704 74 163 9.6 7.0 0.00 0.00 0.00
20260510122205 74 187 9.6 13.0 0.00 0.00 0.00
20260510121705 73 184 10.4 8.7 0.00 0.00 0.00
20260510121202 72 188 7.8 10.4 0.00 0.00 0.00
20260510120703 71 166 10.4 7.8 0.00 0.00 0.00
20260510115701 70 163 6.1 8.7 0.00 0.00 0.00
20260510115201 70 166 7.8 12.2 0.00 0.00 0.00
20260510114700 70 183 7.8 9.6 0.00 0.00 0.00
20260510114302 70 179 10.4 9.6 0.00 0.00 0.00
20260510114158 70 179 10.4 9.6 0.00 0.00 0.00
20260510113658 70 166 8.7 12.2 0.00 0.00 0.00
20260510113159 70 155 7.8 7.0 0.00 0.00 0.00
20260510112655 70 191 8.7 8.7 0.00 0.00 0.00
20260510112155 70 159 7.0 6.1 0.00 0.00 0.00
20260510111656 70 186 7.8 8.7 0.00 0.00 0.00
20260510111153 70 146 10.4 7.8 0.00 0.00 0.00
20260510110654 70 163 7.0 7.0 0.00 0.00 0.00
20260510110154 70 158 7.0 7.0 0.00 0.00 0.00
20260510105731 70 186 7.0 8.7 0.00 0.00 0.00
20260510105651 70 186 7.0 8.7 0.00 0.00 0.00
20260510105233 70 146 6.1 5.2 0.00 0.00 0.00
20260510105152 70 146 6.1 5.2 0.00 0.00 0.00
20260510104652 70 163 6.1 5.2 0.00 0.00 0.00
20260510104150 70 176 6.1 5.2 0.00 0.00 0.00
20260510103650 70 166 6.1 7.8 0.00 0.00 0.00
20260510103150 70 165 7.8 7.0 0.00 0.00 0.00
20260510102648 70 155 7.8 7.8 0.00 0.00 0.00
20260510102148 70 181 7.0 6.1 0.00 0.00 0.00
20260510101649 69 176 7.0 7.8 0.00 0.00 0.00
20260510101146 69 139 5.2 5.2 0.00 0.00 0.00
20260510100647 68 197 5.2 6.1 0.00 0.00 0.00
20260510100146 67 169 4.3 3.5 0.00 0.00 0.00
20260510095644 67 177 3.5 3.5 0.00 0.00 0.00
20260510095144 67 177 0.0 0.0 0.00 0.00 0.00
20260510094645 67 177 0.0 0.0 0.00 0.00 0.00
20260510094142 67 177 0.0 0.0 0.00 0.00 0.00
20260510093643 67 177 0.0 0.0 0.00 0.00 0.00
20260510093143 67 177 0.0 0.0 0.00 0.00 0.00
20260510092641 67 177 0.0 0.0 0.00 0.00 0.00
20260510092140 67 177 0.0 0.0 0.00 0.00 0.00
20260510091640 67 177 0.0 0.0 0.00 0.00 0.00
20260510091138 67 104 0.0 0.0 0.00 0.00 0.00
20260510090638 67 104 0.0 0.0 0.00 0.00 0.00
20260510090139 67 104 0.0 0.0 0.00 0.00 0.00
20260510085636 67 104 0.0 0.0 0.00 0.00 0.00
20260510085136 68 104 1.7 0.0 0.00 0.00 0.00
20260510084637 67 121 1.7 1.7 0.00 0.00 0.00
20260510084134 68 139 2.6 1.7 0.00 0.00 0.00
20260510083635 68 180 2.6 1.7 0.00 0.00 0.00
20260510083135 68 194 4.3 3.5 0.00 0.00 0.00
20260510082633 68 156 4.3 4.3 0.00 0.00 0.00
20260510082133 68 160 3.5 4.3 0.00 0.00 0.00
20260510081634 68 162 5.2 4.3 0.00 0.00 0.00
20260510081131 68 172 3.5 3.5 0.00 0.00 0.00
20260510080632 67 172 4.3 0.0 0.00 0.00 0.00
20260510080132 67 163 0.0 0.0 0.00 0.00 0.00
20260510075630 68 163 0.0 0.0 0.00 0.00 0.00
20260510075130 68 163 0.0 0.0 0.00 0.00 0.00
20260510074631 68 159 2.6 0.0 0.00 0.00 0.00
20260510074128 69 176 2.6 1.7 0.00 0.00 0.00
20260510073628 69 176 3.5 2.6 0.00 0.00 0.00
20260510073129 68 190 0.0 0.0 0.00 0.00 0.00
20260510072626 68 190 0.0 0.0 0.00 0.00 0.00
20260510072127 68 190 0.0 0.0 0.00 0.00 0.00
20260510071627 68 190 0.0 0.0 0.00 0.00 0.00
20260510071125 68 184 2.6 2.6 0.00 0.00 0.00
20260510070625 69 165 1.7 1.7 0.00 0.00 0.00
20260510070411 69 186 2.6 1.7 0.00 0.00 0.00
20260510070126 69 186 2.6 1.7 0.00 0.00 0.00
20260510065623 69 163 1.7 1.7 0.00 0.00 0.00
20260510065124 69 170 2.6 3.5 0.00 0.00 0.00
20260510064624 69 166 2.6 3.5 0.00 0.00 0.00
20260510064121 69 179 1.7 2.6 0.00 0.00 0.00
20260510063622 69 158 1.7 1.7 0.00 0.00 0.00
20260510063122 70 173 0.9 1.7 0.00 0.00 0.00
20260510062620 70 158 1.7 1.7 0.00 0.00 0.00
20260510062120 70 150 1.7 1.7 0.00 0.00 0.00
20260510061621 70 173 2.6 2.6 0.00 0.00 0.00
20260510061118 71 158 2.6 2.6 0.00 0.00 0.00
20260510060619 71 149 1.7 1.7 0.00 0.00 0.00
20260510060119 71 150 1.7 1.7 0.00 0.00 0.00
20260510055617 71 160 2.6 1.7 0.00 0.00 0.00
20260510055117 71 167 3.5 3.5 0.00 0.00 0.00
20260510054617 72 187 4.3 3.5 0.00 0.00 0.00
20260510054114 72 225 5.2 6.1 0.00 0.00 0.00
20260510053614 72 180 4.3 6.1 0.00 0.00 0.00
20260510053115 72 197 4.3 3.5 0.00 0.00 0.00
20260510052611 72 187 3.5 3.5 0.00 0.00 0.00
20260510052112 72 193 2.6 3.5 0.00 0.00 0.00
20260510051612 71 177 2.6 2.6 0.00 0.00 0.00
20260510051110 72 169 1.7 1.7 0.00 0.00 0.00
20260510050610 72 193 2.6 2.6 0.00 0.00 0.00
20260510045608 73 198 4.3 2.6 0.00 0.00 0.00
20260510045108 73 177 4.3 3.5 0.00 0.00 0.00
20260510044609 73 166 4.3 3.5 0.00 0.00 0.00
20260510044106 73 181 4.3 5.2 0.00 0.00 0.00
20260510043607 73 169 4.3 4.3 0.00 0.00 0.00
20260510043107 73 186 3.5 4.3 0.00 0.00 0.00
20260510042604 73 180 3.5 3.5 0.00 0.00 0.00
20260510042105 73 174 2.6 4.3 0.00 0.00 0.00
20260510041605 74 176 2.6 2.6 0.00 0.00 0.00
20260510041103 74 177 3.5 4.3 0.00 0.00 0.00
20260510040709 75 172 3.5 3.5 0.00 0.00 0.00
20260510040603 75 172 3.5 3.5 0.00 0.00 0.00
20260510040103 75 176 3.5 2.6 0.00 0.00 0.00
20260510035601 75 176 2.6 3.5 0.00 0.00 0.00
20260510035101 76 170 2.6 2.6 0.00 0.00 0.00
20260510034602 76 173 2.6 1.7 0.00 0.00 0.00
20260510034059 76 158 2.6 1.7 0.00 0.00 0.00
20260510033559 76 165 3.5 2.6 0.00 0.00 0.00
20260510033100 76 190 3.5 3.5 0.00 0.00 0.00
20260510032557 77 174 3.5 3.5 0.00 0.00 0.00
20260510032058 77 195 3.5 2.6 0.00 0.00 0.00
20260510031558 78 183 3.5 3.5 0.00 0.00 0.00
20260510031056 78 174 3.5 2.6 0.00 0.00 0.00
20260510030556 79 160 1.7 3.5 0.00 0.00 0.00
20260510030056 79 146 2.6 2.6 0.00 0.00 0.00
20260510025554 79 165 3.5 2.6 0.00 0.00 0.00
20260510025054 80 181 4.3 4.3 0.00 0.00 0.00
20260510024555 80 166 3.5 2.6 0.00 0.00 0.00
20260510024052 81 150 3.5 3.5 0.00 0.00 0.00
20260510023553 81 138 4.3 3.5 0.00 0.00 0.00
20260510023053 81 135 4.3 4.3 0.00 0.00 0.00
20260510022550 82 149 4.3 3.5 0.00 0.00 0.00
20260510022051 82 129 5.2 6.1 0.00 0.00 0.00
20260510021549 82 146 5.2 4.3 0.00 0.00 0.00
20260510021047 83 145 5.2 4.3 0.00 0.00 0.00
20260510020547 83 162 6.1 4.3 0.00 0.00 0.00
20260510020047 83 152 4.3 4.3 0.00 0.00 0.00
20260510015545 84 131 5.2 5.2 0.00 0.00 0.00
20260510015045 84 129 6.1 4.3 0.00 0.00 0.00
20260510014545 84 135 5.2 4.3 0.00 0.00 0.00
20260510014043 84 121 3.5 6.1 0.00 0.00 0.00
20260510013543 85 117 4.3 5.2 0.00 0.00 0.00
20260510013043 85 131 5.2 3.5 0.00 0.00 0.00
20260510012541 85 120 3.5 3.5 0.00 0.00 0.00
20260510012041 86 117 2.6 3.5 0.00 0.00 0.00
20260510011541 86 118 4.3 7.0 0.00 0.00 0.00
20260510011039 86 113 5.2 6.1 0.00 0.00 0.00
20260510010539 87 115 4.3 4.3 0.00 0.00 0.00
20260510010039 87 115 5.2 5.2 0.00 0.00 0.00
20260510005537 87 103 3.5 4.3 0.00 0.00 0.00
20260510005037 87 101 6.1 5.2 0.00 0.00 0.00
20260510004646 88 142 7.0 7.0 0.00 0.00 0.00
20260510004537 88 142 7.0 7.0 0.00 0.00 0.00
20260510004035 89 158 6.1 6.1 0.00 0.00 0.00
20260510003535 88 138 5.2 4.3 0.00 0.00 0.00
20260510003036 89 128 7.0 6.1 0.00 0.00 0.00
20260510002533 89 152 7.0 5.2 0.00 0.00 0.00
20260510002033 89 121 7.0 7.8 0.00 0.00 0.00
20260510001534 89 111 7.0 7.0 0.00 0.00 0.00
20260510001031 90 139 7.0 7.8 0.00 0.00 0.00
20260510000532 90 118 6.1 5.2 0.00 0.00 0.00
20260510000032 90 139 7.0 6.1 0.00 0.00 0.00
20260509235529 90 145 7.0 5.2 0.00 0.00 0.00
20260509234530 90 125 9.6 6.1 0.00 0.00 0.00
20260509234027 90 129 6.1 6.1 0.00 0.00 0.00
20260509233527 89 91 8.7 8.7 0.00 0.00 0.00
20260509233027 91 122 7.0 5.2 0.00 0.00 0.00
20260509232524 90 97 7.8 10.4 0.00 0.00 0.00
20260509232025 92 93 7.0 9.6 0.00 0.00 0.00
20260509231525 91 167 4.3 7.0 0.00 0.00 0.00
20260509230522 92 173 5.2 5.2 0.00 0.00 0.00
20260509230022 92 166 4.3 4.3 0.00 0.00 0.00
20260509225520 91 184 5.2 4.3 0.00 0.00 0.00
20260509225020 91 145 7.0 5.2 0.00 0.00 0.00
20260509224520 91 98 5.2 6.1 0.00 0.00 0.00
20260509224018 91 80 6.1 5.2 0.00 0.00 0.00
20260509223518 91 98 7.8 6.1 0.00 0.00 0.00
20260509223018 91 117 7.0 9.6 0.00 0.00 0.00
20260509222516 94 150 8.7 7.0 0.00 0.00 0.00
20260509222016 92 187 6.1 6.1 0.00 0.00 0.00
20260509221516 92 145 7.8 7.0 0.00 0.00 0.00
20260509221014 92 118 6.1 9.6 0.00 0.00 0.00
20260509220514 92 165 7.0 6.1 0.00 0.00 0.00
20260509220014 92 197 8.7 5.2 0.00 0.00 0.00
20260509215511 92 194 6.1 6.1 0.00 0.00 0.00
20260509215012 93 190 6.1 6.1 0.00 0.00 0.00
20260509214512 93 172 8.7 5.2 0.00 0.00 0.00
20260509214010 93 156 7.0 5.2 0.00 0.00 0.00
20260509213510 93 159 5.2 2.6 0.00 0.00 0.00
20260509213010 94 160 6.1 8.7 0.00 0.00 0.00
20260509212508 92 125 4.3 7.8 0.00 0.00 0.00
20260509212008 93 217 7.8 8.7 0.00 0.00 0.00
20260509211508 93 181 4.3 1.7 0.00 0.00 0.00
20260509211006 92 226 6.1 1.7 0.00 0.00 0.00
20260509210506 92 181 7.0 3.5 0.00 0.00 0.00
20260509210006 92 177 7.8 7.8 0.00 0.00 0.00
20260509205504 92 177 8.7 7.0 0.00 0.00 0.00
20260509205004 92 155 7.0 7.8 0.00 0.00 0.00
20260509204504 92 136 7.0 5.2 0.00 0.00 0.00
20260509204001 91 146 7.8 9.6 0.00 0.00 0.00
20260509203502 92 172 8.7 7.0 0.00 0.00 0.00
20260509203002 92 152 7.8 7.0 0.00 0.00 0.00
20260509202459 91 153 7.0 8.7 0.00 0.00 0.00
20260509201959 92 204 7.0 7.0 0.00 0.00 0.00
20260509201500 92 153 5.2 3.5 0.00 0.00 0.00
20260509200957 91 136 6.1 6.1 0.00 0.00 0.00
20260509200458 91 122 7.0 7.8 0.00 0.00 0.00
20260509195958 91 176 8.7 7.8 0.00 0.00 0.00
20260509195455 91 132 7.8 7.0 0.00 0.00 0.00
20260509194956 91 121 7.8 7.0 0.00 0.00 0.00
20260509194456 90 188 6.1 7.0 0.00 0.00 0.00
20260509193953 91 166 8.7 14.8 0.00 0.00 0.00
20260509193454 91 176 5.2 11.3 0.00 0.00 0.00
20260509192953 90 163 9.6 8.7 0.00 0.00 0.00
20260509192450 90 158 8.7 8.7 0.00 0.00 0.00
20260509191951 89 135 7.8 7.8 0.00 0.00 0.00
20260509191451 90 201 9.6 8.7 0.00 0.00 0.00
20260509190948 89 160 7.0 9.6 0.00 0.00 0.00
20260509190449 89 132 7.8 8.7 0.00 0.00 0.00
20260509185949 89 153 7.8 10.4 0.00 0.00 0.00
20260509185446 88 156 7.8 8.7 0.00 0.00 0.00
20260509184947 89 127 7.0 9.6 0.00 0.00 0.00
20260509184447 89 107 8.7 8.7 0.00 0.00 0.00
20260509183944 89 212 7.8 7.0 0.00 0.00 0.00
20260509183445 88 149 6.1 9.6 0.00 0.00 0.00
20260509182945 88 167 7.8 9.6 0.00 0.00 0.00
20260509182442 88 173 8.7 8.7 0.00 0.00 0.00
20260509181943 88 156 7.8 10.4 0.00 0.00 0.00
20260509181443 89 141 7.8 9.6 0.00 0.00 0.00
20260509180940 88 194 7.0 6.1 0.00 0.00 0.00
20260509180441 87 205 7.8 7.8 0.00 0.00 0.00
20260509175941 88 118 8.7 7.8 0.00 0.00 0.00
20260509175438 88 108 7.0 7.8 0.00 0.00 0.00
20260509174939 87 87 7.0 1.7 0.00 0.00 0.00
20260509174439 87 145 7.0 6.1 0.00 0.00 0.00